Location: Juzet
(42.9779°N, 0.7597°E)
Time: 07:11:59
(UTC+00:00)

SeaSat 1 - Pass Details

Date: 14 July 2020
Orbit: 744 x 747 km, 108.0° (Epoch: 04 August)

Event Time Altitude Azimuth Distance (km) Brightness Sun altitude
Rises 02:15:19 0° 23° (NNE) 3,200 7.3 -18.6°
Reaches altitude 10° 02:17:36 10° 20° (NNE) 2,272 6.1 -18.3°
Maximum altitude 02:22:29 63° 301° (WNW) 833 2.6 -17.9°
Enters shadow 02:24:47 31° 230° (SW) 1,300 3.1 -17.6°
